EW0822 Weather Reports


time (UTC)temp
C
wind
direction
speed
KPH
gust
KPH
rain 1hr
cm
rain 24hr
cm
rain mn
cm
humidity
%
barometer
mb
20260503010024 13 112 0.0 0.0 0.00 0.03 0.00 72 1012.2
20260503004530 13 112 0.0 0.0 0.00 0.03 0.00 72 1012.3
20260503003025 13 112 0.0 0.0 0.00 0.03 0.00 72 1012.5
20260503001518 13 112 0.0 0.0 0.00 0.03 0.00 72 1012.7
20260503000017 14 112 0.0 0.0 0.00 0.03 0.00 73 1012.8
20260502234514 14 112 0.0 0.0 0.00 0.03 0.00 73 1012.9
20260502233027 14 112 0.0 0.0 0.00 0.03 0.00 74 1013.1
20260502231510 14 112 0.0 0.0 0.00 0.03 0.00 74 1013.2
20260502230009 15 112 0.0 0.0 0.00 0.03 0.00 74 1013.3
20260502224506 15 112 0.0 0.0 0.00 0.03 0.00 75 1013.4
20260502223004 15 112 0.0 0.0 0.00 0.03 0.00 75 1013.5
20260502221501 15 112 0.0 0.0 0.00 0.03 0.00 76 1013.5
20260502220100 16 112 0.0 0.0 0.00 0.03 0.03 76 1013.4
20260502214559 16 112 0.0 0.0 0.00 0.03 0.03 76 1013.5
20260502213057 16 112 0.0 0.0 0.00 0.03 0.03 75 1013.6
20260502211557 17 112 0.0 0.0 0.00 0.03 0.03 74 1013.9
20260502210107 17 113 0.0 0.0 0.00 0.03 0.03 75 1013.9
20260502204557 17 149 0.0 0.0 0.00 0.03 0.03 75 1014.0
20260502203055 17 157 0.0 0.0 0.00 0.03 0.03 75 1014.3
20260502201554 17 157 0.0 0.0 0.00 0.03 0.03 75 1014.3
20260502200054 17 157 0.0 0.0 0.00 0.03 0.03 75 1014.2
20260502194557 18 157 0.0 0.0 0.00 0.03 0.03 75 1014.2
20260502193055 18 160 0.0 0.0 0.00 0.03 0.03 75 1014.2
20260502191558 18 160 0.0 0.0 0.00 0.03 0.03 74 1014.1
20260502190053 18 180 0.0 0.0 0.00 0.03 0.03 74 1014.1
20260502184558 19 180 0.0 17.7 0.00 0.03 0.03 74 1014.1
20260502183053 20 175 0.0 0.0 0.00 0.03 0.03 74 1013.7
20260502181553 20 175 0.0 0.0 0.03 0.03 0.03 75 1013.6
20260502163048 23 208 0.0 0.0 0.00 0.00 0.00 55 1014.1
20260502161537 23 211 0.0 0.0 0.00 0.00 0.00 57 1014.2
20260502151544 22 242 0.0 0.0 0.00 0.00 0.00 56 1015.1
20260502123022 26 65 0.0 9.7 0.00 0.00 0.00 38 1016.6
20260502121509 26 46 0.0 4.8 0.00 0.00 0.00 38 1016.7
20260502114504 26 100 0.0 0.0 0.00 0.00 0.00 38 1017.3
20260502113105 26 196 0.0 0.0 0.00 0.00 0.00 38 1017.4
20260502111602 25 128 0.0 3.2 0.00 0.00 0.00 39 1017.7
20260502110056 25 65 1.6 9.7 0.00 0.00 0.00 38 1017.8
20260502104552 25 32 0.0 3.2 0.00 0.00 0.00 38 1018.1
20260502103101 25 94 0.0 8.0 0.00 0.00 0.00 40 1018.3
20260502101557 24 41 0.0 9.7 0.00 0.00 0.00 42 1018.5
20260502100107 23 45 0.0 1.6 0.00 0.00 0.00 42 1018.6
20260502091532 22 71 0.0 0.0 0.00 0.00 0.00 41 1019.2
20260502071502 17 72 0.0 0.0 0.00 0.00 0.00 51 1019.6
20260502070001 17 73 0.0 3.2 0.00 0.00 0.00 50 1019.6
20260502064612 16 35 0.0 9.7 0.00 0.00 0.00 51 1019.5
20260502063107 16 55 0.0 6.4 0.00 0.00 0.00 51 1019.6
20260502061613 16 64 0.0 8.0 0.00 0.00 0.00 51 1019.5
20260502060053 16 55 0.0 4.8 0.00 0.00 0.00 50 1019.7
20260502054549 15 59 0.0 6.4 0.00 0.00 0.00 52 1019.8
20260502053047 15 88 0.0 8.0 0.00 0.00 0.00 53 1019.8
20260502051541 14 43 0.0 6.4 0.00 0.00 0.00 55 1019.5
20260502050035 13 51 0.0 9.7 0.00 0.00 0.00 56 1019.5
20260502044530 13 56 0.0 4.8 0.00 0.00 0.00 57 1019.6
20260502043030 13 49 0.0 9.7 0.00 0.00 0.00 57 1019.5
20260502041531 13 53 0.0 1.6 0.00 0.00 0.00 57 1019.6
20260502040025 13 51 0.0 6.4 0.00 0.00 0.00 57 1019.6
20260502034524 13 51 0.0 6.4 0.00 0.00 0.00 57 1019.7
20260502033026 13 42 0.0 1.6 0.00 0.00 0.00 58 1019.8
20260502031522 13 50 0.0 0.0 0.00 0.00 0.00 57 1019.9
20260502030021 13 55 0.0 0.0 0.00 0.00 0.00 56 1020.0
20260502024521 13 54 0.0 8.0 0.00 0.00 0.00 55 1020.0
20260502023119 13 40 0.0 3.2 0.00 0.00 0.00 56 1020.0
20260502021518 13 57 0.0 0.0 0.00 0.00 0.00 55 1020.1
20260502020017 13 61 0.0 0.0 0.00 0.00 0.00 55 1020.1
20260502014515 13 43 0.0 3.2 0.00 0.00 0.00 55 1020.2
20260502013014 13 34 0.0 1.6 0.00 0.00 0.00 56 1020.4
20260502011513 13 53 0.0 3.2 0.00 0.00 0.00 55 1020.5